Aérodrome :
LOGIN :

S'inscrire | Disclaimer

   EN    FR    IT 

 










Légende :    VFR   VFR Marginal   IFR   IFR Intensif   IFR Très Intensif
Visi : 
Plafond : 
>= 8 km
>= 3000ft
5 à 8 km
1000 à 3000 ft
1500m à 5 km
500 à 1000 ft
800 à 1500m
200 à 500 ft
< 800m
< 200 ft
Symboles :   Orages  Brouillard  Fortes neiges  Fortes précipitations  Vent > 20 kt
SIGMETs :   Divers  Orages  Givrage  Turbulence  Onde Orograph.  Cendres Volcan.







- Altitude de l'aérodrome : 129 ft
- Code IATA : ZCN


ETHC - Celle

DERNIER METAR :
  • 250520Z 24005KT 9999 SCT006 BKN022 14/12 Q1021 WHT WHT TEMPO YLO

METARs EXPIRÉS :
  • 250420Z 24004KT 9999 SCT006 BKN019 13/11 Q1021 WHT WHT TEMPO YLO
  • 250320Z AUTO 25004KT 8000 // ////// 12/11 Q1020 ///

TAF TAF ETHC
Valide du 25 à 05h jusqu'au 25 à 14h UTC


250428Z 2505/2514 25004KT 9999 NSW SCT006 BKN020
TEMPO 2505/2508 VRB03KT 4000 -DZRA BKN005 BKN010
BECMG 2508/2510 29008KT 9999 NSW SCT020 BKN030
Pas de NOTAMs connus pour ce terrain.



MET'MAP, la Météo Aéronautique d'un coup d'oeil ! - Copyright ORBIFLY Décembre 2007 - Disclaimer

ORBIFLY MET'MAP TEAM :

Programmation & Développement : Alexandra Zaïnal
Conception & Développement : Baudouin d'Aumeries
Co-Programmation & Développement : Marc-Olivier Méhu
Soutien technique & logistique : Manuel Goepfert

Contact : metmap@orbifly.com




SOURCES & CREDITS :

   NOAA